EW3614 Weather Reports


time (UTC)temp
C
wind
direction
speed
KPH
gust
KPH
rain 1hr
cm
rain 24hr
cm
rain mn
cm
humidity
%
barometer
mb
20260506201527 8 229 0.0 3.2 0.08 1.88 1.73 96 946.5
20260506200023 -17 229 0.0 0.0 0.00 1.80 1.65 96 946.5
20260506194521 9 229 0.0 0.0 0.00 1.80 1.65 97 946.6
20260506193018 9 229 0.0 1.6 0.00 1.80 1.65 97 946.7
20260506191517 9 229 3.2 9.7 0.03 1.80 1.65 96 946.7
20260506190015 10 229 4.8 8.0 0.10 1.80 1.65 97 946.8
20260506184522 -17 229 0.0 0.0 0.15 1.80 1.65 97 946.8
20260506183019 10 229 0.0 3.2 0.20 1.80 1.65 98 946.8
20260506181514 10 229 0.0 12.9 0.23 1.75 1.60 96 947.4
20260506180007 11 217 0.0 0.0 0.28 1.70 1.55 97 947.1
20260506174504 11 217 0.0 0.0 0.30 1.65 1.50 96 947.5
20260506173004 12 217 0.0 0.0 0.33 1.60 1.42 97 947.7
20260506171504 12 216 0.0 8.0 0.30 1.52 1.37 97 947.6
20260506170004 12 216 0.0 6.4 0.25 1.42 1.27 97 947.5
20260506164614 12 216 1.6 11.3 0.20 1.35 1.19 97 947.5
20260506163103 12 205 1.6 8.0 0.15 1.27 1.12 97 947.7
20260506161557 12 203 4.8 12.9 0.15 1.22 1.07 97 947.9
20260506154558 12 209 1.6 11.3 0.15 1.14 0.99 97 948.2
20260506153110 12 223 3.2 12.9 0.15 1.12 0.97 97 948.5
20260506151549 -17 218 3.2 11.3 0.15 1.07 0.91 97 948.6
20260506150057 11 222 3.2 16.1 0.15 1.04 0.89 97 948.8
20260506144555 11 211 3.2 9.7 0.13 0.99 0.84 97 948.8
20260506143045 11 232 1.6 9.7 0.13 0.97 0.81 97 948.8
20260506141543 11 204 3.2 6.4 0.13 0.91 0.76 97 949.0
20260506140042 11 203 0.0 6.4 0.15 0.89 0.71 96 949.1
20260506134541 11 198 0.0 6.4 0.18 0.86 0.71 96 949.2
20260506133042 11 198 0.0 0.0 0.18 0.84 0.69 97 949.1
20260506131541 11 198 0.0 0.0 0.13 0.79 0.64 96 949.1
20260506130037 11 198 0.0 0.0 0.10 0.71 0.58 96 949.4
20260506124535 -17 198 0.0 0.0 0.05 0.69 0.53 96 949.5
20260506123034 11 198 0.0 0.0 0.03 0.66 0.51 96 949.7
20260506121533 10 198 0.0 0.0 0.03 0.66 0.51 96 949.7
20260506120037 11 197 0.0 4.8 0.00 0.64 0.48 96 949.8
20260506114530 10 197 0.0 0.0 0.00 0.64 0.48 96 949.6
20260506113037 10 196 0.0 0.0 0.00 0.64 0.48 96 949.6
20260506111528 10 196 0.0 0.0 0.00 0.64 0.48 96 949.6
20260506110025 -17 196 0.0 1.6 0.00 0.64 0.48 96 949.5
20260506104525 10 198 0.0 0.0 0.00 0.64 0.48 96 949.5
20260506103026 10 198 0.0 0.0 0.00 0.64 0.48 96 949.7
20260506101521 10 198 0.0 0.0 0.00 0.64 0.48 96 949.9
20260506100019 10 198 0.0 0.0 0.00 0.64 0.48 96 949.6
20260506094517 -17 198 0.0 0.0 0.00 0.64 0.48 95 949.8
20260506093015 10 198 0.0 0.0 0.00 0.64 0.48 95 949.8
20260506091513 10 198 0.0 0.0 0.00 0.64 0.48 95 950.2
20260506090020 10 198 0.0 0.0 0.00 0.64 0.48 95 949.8
20260506084510 10 199 0.0 0.0 0.00 0.64 0.48 95 950.2
20260506083008 -17 198 0.0 0.0 0.00 0.64 0.48 95 950.3
20260506081508 10 198 0.0 0.0 0.00 0.64 0.48 95 950.0
20260506073002 11 198 0.0 0.0 0.00 0.64 0.48 94 950.0
20260506071607 11 198 0.0 0.0 0.00 0.64 0.48 94 950.0
20260506070104 11 198 0.0 0.0 0.05 0.64 0.48 94 950.3
20260506061555 11 198 0.0 6.4 0.33 0.64 0.48 93 950.2
20260506044545 11 5 0.0 8.0 0.10 0.25 0.10 90 950.4
20260506043043 12 306 1.6 14.5 0.10 0.25 0.10 89 950.3
20260506041538 -17 209 0.0 1.6 0.03 0.18 0.03 89 950.4
20260506040036 12 213 0.0 0.0 0.00 0.15 0.00 88 949.8
20260506034535 13 213 0.0 0.0 0.00 0.15 0.15 87 949.5
20260506033031 13 213 0.0 0.0 0.00 0.15 0.15 87 949.2
20260506031531 13 213 0.0 0.0 0.00 0.15 0.15 86 949.2
20260506030038 -17 213 0.0 0.0 0.00 0.15 0.15 84 949.2
20260506024553 13 213 0.0 0.0 0.00 0.15 0.15 84 949.4
20260506023026 12 213 0.0 0.0 0.00 0.15 0.15 85 949.3
20260506021528 12 213 0.0 0.0 0.00 0.15 0.15 84 949.3
20260506020023 12 213 0.0 0.0 0.00 0.15 0.15 82 949.2
20260506014520 -17 213 0.0 0.0 0.00 0.15 0.15 80 949.1
20260506013032 14 213 0.0 0.0 0.00 0.15 0.15 76 948.9
20260506011518 15 213 0.0 3.2 0.00 0.15 0.15 72 948.9
20260506010020 16 218 0.0 4.8 0.00 0.15 0.15 71 948.8
20260506004513 16 207 0.0 4.8 0.00 0.15 0.15 70 948.5
20260506003016 16 208 1.6 11.3 0.00 0.15 0.15 70 948.6
20260506001511 16 216 1.6 12.9 0.00 0.15 0.15 70 948.5
20260506000010 -17 229 1.6 12.9 0.00 0.15 0.15 70 948.5
20260505234509 16 222 4.8 12.9 0.00 0.15 0.15 70 948.4
20260505233007 16 222 3.2 11.3 0.00 0.15 0.15 71 948.4
20260505231507 16 225 4.8 17.7 0.00 0.15 0.15 71 948.0
20260505230013 16 225 6.4 17.7 0.00 0.15 0.15 73 948.1
20260505224502 -17 222 3.2 11.3 0.00 0.15 0.15 76 948.2
20260505223001 16 222 3.2 12.9 0.00 0.15 0.15 76 947.7
20260505221600 -17 215 6.4 14.5 0.00 0.15 0.15 77 948.1
20260505220103 16 206 0.0 9.7 0.00 0.15 0.15 81 948.0
20260505214555 15 227 0.0 0.0 0.00 0.15 0.15 82 947.2
20260505213059 15 227 3.2 17.7 0.08 0.15 0.15 81 947.0
20260505211553 15 219 1.6 22.5 0.10 0.15 0.15 81 947.1
20260505210051 -17 224 6.4 19.3 0.15 0.15 0.15 83 947.5
20260505204553 15 258 6.4 32.2 0.15 0.15 0.15 81 947.2
20260505203055 16 211 14.5 29.0 0.08 0.08 0.08 76 947.7